2024-149CD

Last updated on Mon Sep 16 2024 00:02:04 GMT+0000 (Coordinated Universal Time)

1 60543U 24149CD 24259.19696894 .00004165 00000+0 41061-3 0 9992 2 60543 97.7468 334.2109 0005411 73.8165 286.3649 14.92541701 4370
UTC large
Height (km)
Speed (km/s)
/
Latitude / Longitude
Inclination (degrees)
Orbital Period (minutes)
Azimuth
Elevation
Range (km)
Doppler Factor

Next 0 passes for location: London (51.5072 / 0.1276)

Sorry there are no passes over London.